KE6AFE Weather Reports


time (UTC)temp
F
wind
direction
speed
knots
gust
knots
rain 1hr
in
rain 24hr
in
rain mn
in
humidity
%
barometer
mb
20260905120050 55 1 0.0 0.0 0.00 0.01 0.00 63 1014.2
20260905115040 56 1 0.0 0.0 0.00 0.01 0.00 63 1014.1
20260905114030 56 1 0.0 0.0 0.00 0.01 0.00 63 1014.2
20260905113020 56 1 0.0 0.0 0.00 0.01 0.00 62 1014.3
20260905112010 56 1 0.0 0.0 0.00 0.01 0.00 62 1014.2
20260905111000 56 1 0.0 0.0 0.00 0.01 0.00 62 1014.4
20260905105950 56 1 0.0 0.0 0.00 0.01 0.00 62 1014.4
20260905104940 56 2 0.0 0.0 0.00 0.01 0.00 62 1014.3
20260905103930 56 1 0.0 0.0 0.00 0.01 0.00 61 1014.4
20260905102920 57 2 0.0 0.0 0.00 0.01 0.00 61 1014.5
20260905101910 57 1 0.0 0.0 0.00 0.01 0.00 62 1014.5
20260905100900 57 1 0.0 0.0 0.00 0.01 0.00 61 1014.5
20260905095850 57 2 0.0 0.0 0.00 0.01 0.00 61 1014.6
20260905094840 57 1 0.0 0.0 0.00 0.01 0.00 61 1014.6
20260905093830 58 2 0.0 0.0 0.00 0.01 0.00 61 1014.6
20260905092820 58 2 0.0 0.0 0.00 0.01 0.00 61 1014.7
20260905091810 58 2 0.0 0.0 0.00 0.01 0.00 61 1014.8
20260905090800 58 2 0.0 0.0 0.00 0.01 0.00 60 1014.9
20260905085750 59 2 0.0 0.0 0.00 0.01 0.00 60 1014.9
20260905084740 59 2 0.0 0.0 0.00 0.01 0.00 59 1015.0
20260905083730 59 1 0.0 0.0 0.00 0.01 0.00 59 1015.0
20260905082720 60 1 0.0 0.0 0.00 0.01 0.00 59 1015.1
20260905081710 60 1 0.0 0.0 0.00 0.01 0.00 59 1015.0
20260905080700 61 1 0.0 0.0 0.00 0.01 0.00 58 1015.2
20260905075650 61 2 0.0 0.0 0.00 0.01 0.00 58 1015.2
20260905074640 61 2 0.0 0.0 0.00 0.01 0.00 58 1015.1
20260905073630 62 1 0.0 0.0 0.00 0.02 0.00 60 1015.1
20260905072620 62 1 0.0 0.0 0.00 0.02 0.00 60 1015.1
20260905071610 62 1 0.0 0.0 0.00 0.03 0.00 59 1015.0
20260905070600 62 1 0.0 0.0 0.00 0.03 0.00 53 1015.0
20260905065550 62 2 0.0 0.0 0.00 0.03 0.03 53 1014.9
20260905064540 62 1 0.0 0.0 0.00 0.03 0.03 53 1014.9
20260905063530 63 1 0.0 0.0 0.00 0.04 0.03 52 1014.8
20260905062520 63 1 0.0 0.0 0.00 0.04 0.03 52 1014.8
20260905061510 63 1 0.0 0.0 0.00 0.04 0.03 52 1014.8
20260905060500 63 1 0.0 0.0 0.00 0.04 0.03 52 1015.0
20260905055450 64 1 0.0 0.0 0.00 0.04 0.03 51 1015.0
20260905054440 64 1 0.0 0.0 0.00 0.04 0.03 51 1015.0
20260905053430 64 1 0.0 0.0 0.00 0.04 0.03 51 1014.9
20260905052420 64 1 0.0 0.0 0.00 0.04 0.03 51 1014.9
20260905051410 65 1 0.0 0.0 0.00 0.04 0.03 51 1015.0
20260905050400 65 1 0.0 0.0 0.00 0.04 0.03 49 1015.1
20260905045350 65 1 0.0 0.0 0.00 0.04 0.03 49 1015.0
20260905044340 66 1 0.0 0.0 0.00 0.04 0.03 48 1014.9
20260905043330 66 1 0.0 0.0 0.00 0.04 0.03 47 1014.8
20260905042320 67 1 0.0 0.0 0.00 0.04 0.03 46 1014.7
20260905041310 67 1 0.0 0.0 0.00 0.04 0.03 45 1014.7
20260905040300 68 2 0.0 0.0 0.00 0.04 0.03 44 1014.7
20260905035250 68 1 0.0 0.0 0.00 0.04 0.03 43 1014.6
20260905034240 69 1 0.0 0.0 0.00 0.04 0.03 42 1014.5
20260905033230 70 1 0.0 0.0 0.00 0.04 0.03 41 1014.3
20260905032220 71 1 0.0 0.0 0.00 0.04 0.03 41 1014.2
20260905031210 71 1 0.0 0.0 0.00 0.04 0.03 40 1014.2
20260905030200 72 1 0.0 0.0 0.00 0.04 0.03 40 1014.1
20260905025150 73 1 0.0 0.0 0.00 0.04 0.03 41 1014.1
20260905024140 74 1 0.0 0.0 0.00 0.04 0.03 41 1014.1
20260905023130 74 1 0.0 0.0 0.00 0.04 0.03 42 1014.1
20260905022120 75 1 0.0 0.0 0.00 0.04 0.03 42 1014.1
20260905021110 76 1 0.0 0.0 0.00 0.04 0.03 42 1014.0
20260905020100 76 1 0.0 0.0 0.00 0.04 0.03 41 1013.9
20260905015050 77 1 0.0 0.0 0.00 0.04 0.03 43 1013.9
20260905014040 77 1 0.0 0.0 0.00 0.04 0.03 43 1013.9
20260905013030 78 1 0.0 0.0 0.00 0.04 0.03 43 1013.9
20260905012020 78 1 0.0 0.0 0.00 0.04 0.03 42 1014.0
20260905011010 78 1 0.0 0.0 0.00 0.04 0.03 42 1014.0
20260905010000 78 1 0.0 0.0 0.00 0.04 0.03 41 1014.0
20260905004950 79 1 0.0 0.0 0.00 0.04 0.03 41 1014.0
20260905003940 79 1 0.0 0.0 0.00 0.04 0.03 40 1014.0
20260905002930 79 1 0.0 0.0 0.00 0.04 0.03 40 1014.0
20260905001920 79 1 0.0 0.0 0.00 0.04 0.03 40 1014.1
20260905000910 79 1 0.0 0.0 0.00 0.04 0.03 39 1014.0
20260904235900 79 1 0.0 0.0 0.00 0.04 0.03 38 1014.0
20260904234850 79 1 0.0 0.0 0.00 0.04 0.03 38 1014.1
20260904233840 80 1 0.0 0.0 0.00 0.04 0.03 38 1014.2
20260904232830 80 1 0.0 0.0 0.00 0.04 0.03 37 1014.2
20260904231820 80 1 0.0 0.0 0.00 0.04 0.03 38 1014.3
20260904230810 80 1 0.0 0.0 0.00 0.04 0.03 37 1014.2
20260904225800 80 1 0.0 0.0 0.00 0.04 0.03 38 1014.4
20260904224750 80 1 0.0 0.0 0.00 0.04 0.03 39 1014.4
20260904223740 80 1 0.0 0.0 0.00 0.04 0.03 39 1014.5
20260904222730 80 1 0.0 0.0 0.00 0.04 0.03 40 1014.6
20260904221720 80 0 0.0 0.0 0.00 0.04 0.03 41 1014.7
20260904220710 80 1 0.0 0.0 0.00 0.04 0.03 41 1014.8
20260904215700 79 1 0.0 0.0 0.00 0.04 0.03 42 1014.8
20260904214650 79 1 0.0 0.0 0.00 0.04 0.03 42 1014.8
20260904213640 78 0 0.0 0.0 0.00 0.04 0.03 42 1014.8
20260904212630 77 1 0.0 0.0 0.00 0.04 0.03 43 1014.8
20260904211620 77 1 0.0 0.0 0.00 0.04 0.03 44 1014.9
20260904210610 76 1 0.0 0.0 0.00 0.04 0.03 45 1015.0
20260904205600 76 0 0.0 0.0 0.00 0.04 0.03 48 1015.1
20260904204550 76 0 0.0 0.0 0.00 0.04 0.03 50 1015.2
20260904203540 75 0 0.0 0.0 0.00 0.04 0.03 51 1015.3
20260904202530 75 0 0.0 0.0 0.00 0.04 0.03 54 1015.2
20260904201520 75 0 0.0 0.0 0.00 0.04 0.03 56 1015.3
20260904200510 74 0 0.0 0.0 0.00 0.04 0.03 57 1015.2
20260904195500 74 0 0.0 0.0 0.00 0.04 0.03 59 1015.2
20260904194450 74 0 0.0 0.0 0.00 0.04 0.03 60 1015.2
20260904193440 73 1 0.0 0.0 0.00 0.04 0.03 61 1015.2
20260904192430 73 0 0.0 0.0 0.00 0.04 0.03 62 1015.2
20260904191420 72 0 0.0 0.0 0.00 0.04 0.03 63 1015.3
20260904190410 72 0 0.0 0.0 0.00 0.04 0.03 65 1015.3
20260904185400 71 0 0.0 0.0 0.00 0.04 0.03 67 1015.3
20260904184350 70 0 0.0 0.0 0.00 0.04 0.03 68 1015.3
20260904183340 70 0 0.0 0.0 0.00 0.04 0.03 69 1015.4
20260904182330 69 0 0.0 0.0 0.00 0.04 0.03 71 1015.2
20260904181320 69 0 0.0 0.0 0.00 0.04 0.03 71 1015.2
20260904180310 68 0 0.0 0.0 0.00 0.04 0.03 72 1015.3
20260904175300 68 0 0.0 0.0 0.00 0.04 0.03 72 1015.2
20260904174250 67 0 0.0 0.0 0.00 0.04 0.03 74 1015.2
20260904173240 67 0 0.0 0.0 0.00 0.04 0.03 76 1015.3
20260904172230 66 0 0.0 0.0 0.00 0.04 0.03 77 1015.1
20260904171220 66 0 0.0 0.0 0.00 0.04 0.03 77 1015.0
20260904170210 65 0 0.0 0.0 0.00 0.04 0.03 78 1015.1
20260904165200 65 0 0.0 0.0 0.00 0.04 0.03 78 1015.1
20260904164150 65 0 0.0 0.0 0.00 0.04 0.03 79 1014.9
20260904163140 64 0 0.0 0.0 0.01 0.04 0.03 80 1014.8
20260904162130 63 1 0.0 0.0 0.01 0.04 0.03 80 1014.7
20260904161120 63 1 0.0 0.0 0.01 0.04 0.03 81 1014.6
20260904160110 62 1 0.0 0.0 0.01 0.04 0.03 81 1014.4
20260904155100 61 1 0.0 0.0 0.01 0.04 0.03 81 1014.3
20260904154050 60 1 0.0 0.0 0.00 0.03 0.02 81 1014.3
20260904153040 60 1 0.0 0.0 0.00 0.03 0.02 82 1014.2
20260904152030 59 1 0.0 0.0 0.00 0.03 0.02 82 1014.2
20260904151020 59 1 0.0 0.0 0.00 0.03 0.02 82 1014.2
20260904150010 58 2 0.0 0.0 0.00 0.03 0.02 81 1014.1
20260904145000 58 1 0.0 0.0 0.00 0.03 0.02 81 1013.9
20260904143950 58 2 0.0 0.0 0.00 0.03 0.02 81 1013.8
20260904142940 58 2 0.0 0.0 0.00 0.03 0.02 80 1013.7
20260904141930 58 2 0.0 0.0 0.00 0.03 0.02 80 1013.6
20260904140920 58 1 0.0 0.0 0.00 0.03 0.02 79 1013.5
20260904135910 58 2 0.0 0.0 0.00 0.03 0.02 79 1013.3
20260904134900 58 1 0.0 0.0 0.00 0.03 0.02 79 1013.3
20260904133850 59 2 0.0 0.0 0.00 0.03 0.02 79 1013.2
20260904132840 59 1 0.0 0.0 0.00 0.03 0.02 78 1013.1
20260904131830 59 2 0.0 0.0 0.00 0.03 0.02 79 1013.2
20260904130820 59 2 0.0 0.0 0.00 0.03 0.02 79 1013.1
20260904125810 59 1 0.0 0.0 0.00 0.03 0.02 79 1013.0
20260904124800 60 1 0.0 0.0 0.00 0.03 0.02 79 1013.0
20260904123750 60 1 0.0 0.0 0.00 0.03 0.02 79 1012.9
20260904122740 60 2 0.0 0.0 0.00 0.03 0.02 79 1013.0
20260904121730 60 2 0.0 0.0 0.00 0.03 0.02 78 1012.9